Regional Weather Roundup
Issued by NWS

Home | Current Version | Previous Version | Graphics & Text | Print | Product List | Glossary On
Versions: 1 2 3 4 5 6 7 8 9 10 11 12 13 14 15 16 17 18 19 20 21 22 23 24 25 26 27 28 29 30 31 32 33 34 35 36 37 38 39 40 41 42 43 44 45 46 47 48 49 50
263
ASUS45 KBOU 271107
RWRCO

WEATHER ROUNDUP FOR COLORADO
NATIONAL WEATHER SERVICE DENVER/BOULDER CO
500 AM MDT SAT MAY 27 2017

NOTE: "FAIR" INDICATES FEW OR NO CLOUDS BELOW 12000 FEET WITH NO
SIGNIFICANT WEATHER AND/OR OBSTRUCTIONS TO VISIBILITY.

COZ001>005-013-030-031-271200-
...NORTHWEST COLORADO...

CITY           SKY/WX    TMP DP  RH WIND       PRES   REMARKS
CRAIG          LGT RAIN  43  38  82 E6        30.11R
HAYDEN         CLOUDY    39  34  81 E8        30.12R
MEEKER         CLOUDY    44  41  89 CALM      30.11R
RABBIT EARS PA NOT AVBL
STEAMBOAT SPGS NOT AVBL
WALDEN         NOT AVBL
$$

COZ006>008-011-271200-
...WEST CENTRAL VALLEYS...

CITY           SKY/WX    TMP DP  RH WIND       PRES   REMARKS
GRAND JUNCTION CLOUDY    56  35  45 N6        30.04R
MONTROSE       MOCLDY    53  34  48 E5        30.07R
EAGLE          MOCLDY    47  35  63 S3        30.10R
RIFLE          MOCLDY    51  37  58 S3        30.06R
DELTA          FAIR      58  37  44 SW20G26   30.00R
NUCLA          FAIR      54  27  35 CALM      30.09R
$$

COZ017>023-064>068-271200-
...SOUTHWEST COLORADO...

CITY           SKY/WX    TMP DP  RH WIND       PRES   REMARKS
DURANGO        FAIR      41  20  43 N5        30.07S
CORTEZ         FAIR      48  28  46 NE7       30.05R
PAGOSA SPRINGS FAIR      39  15  37 CALM      30.12S
TELLURIDE      FAIR      45  20  37 CALM      30.19R
WOLF CREEK PAS NOT AVBL
$$

COZ009-010-012-014-032>034-037-058>063-271200-
...CENTRAL COLORADO...

CITY           SKY/WX    TMP DP  RH WIND       PRES   REMARKS
ASPEN          MOCLDY    45  34  65 CALM      30.10R
BUENA VISTA    FAIR      43  29  58 E12       30.05R
COPPER MTN     NOT AVBL
BERTHOUD PASS  NOT AVBL
COTTONWOOD PAS NOT AVBL
GUNNISON       FAIR      35  27  72 CALM      30.10R
KREMMLING      NOT AVBL
LEADVILLE      MOCLDY    33  21  61 NE9       30.13R WCI  25
SALIDA         FAIR      44  16  32 N5        30.11R
SUNLIGHT       NOT AVBL
WILKERSON PASS NOT AVBL
$$

COZ069>075-271200-
...SAN LUIS VALLEY/SANGRE DE CRISTO MOUNTAINS...

CITY           SKY/WX    TMP DP  RH WIND       PRES   REMARKS
ALAMOSA        FAIR      39  23  52 S9        30.07S
DEL NORTE      NOT AVBL
LA VETA PASS   NOT AVBL
SAGUACHE       NOT AVBL
$$

COZ035-036-038>040-271200-
...NORTHERN COLORADO FRONT RANGE...

CITY           SKY/WX    TMP DP  RH WIND       PRES   REMARKS
DENVER INTL AP MOCLDY    48  44  86 W8        30.04R
DMNS CITY PARK   N/A     46  44  93 E8        30.04S
AURORA         MOCLDY    46  45  95 CALM      30.05R
FRONT RANGE AP NOT AVBL
ERIE MUNI ARPT NOT AVBL
BOULDER MUN AP NOT AVBL
CENTENNIAL     MOCLDY    47  44  90 CALM      30.04F
BROOMFIELD     NOT AVBL
FORT COLLINS   CLOUDY    46  44  93 S7        30.03R
LONGMONT       NOT AVBL
$$

COZ041-046-047-076>085-087-088-271200-
...PIKES PEAK/PALMER DIVIDE AND SOUTHERN FOOTHILLS...

CITY           SKY/WX    TMP DP  RH WIND       PRES   REMARKS
COLO. SPRINGS  FAIR      49  41  74 N16G30    30.04R
A. F. ACADEMY  FAIR      45  40  84 N12       30.05R
SCHRIEVER AFB  FAIR      47  40  79 N18       30.03R
CHEYENNE MTN   FAIR      45  38  77 N15G25    29.99R
ELLICOTT       MOCLDY   N/A N/A N/A N13       30.02R
FALCON         FAIR      45  40  85 N18       30.05S
FORT CARSON    FAIR      48  41  75 N16       30.02R
LIMON          CLOUDY    48  46  93 N16       30.01S
MONUMENT HILL  NOT AVBL
CANON CITY     NOT AVBL
WALSENBURG     NOT AVBL
TRINIDAD       CLOUDY    50  42  74 NW9       30.05R
$$

COZ042>045-048>051-090-091-271200-
...NORTHEAST COLORADO...

CITY           SKY/WX    TMP DP  RH WIND       PRES   REMARKS
GREELEY ARPT   CLOUDY    49  46  90 SW3       30.03R
AKRON          CLOUDY    50  47  89 NW10      29.99S
BURLINGTON     CLOUDY    54  51  90 NW13      29.96R
WRAY           CLOUDY    54  54 100 NW15G22   29.95R
YUMA           NOT AVBL
STERLING       NOT AVBL
HOLYOKE        NOT AVBL
FORT MORGAN    FAIR      44  42  93 CALM      30.01S
$$

COZ086-089-092>099-271200-
...SOUTHEAST COLORADO...

CITY           SKY/WX    TMP DP  RH WIND       PRES   REMARKS
PUEBLO         FAIR      52  43  71 NE6       30.00R
LA JUNTA       CLOUDY    57  48  72 N14       29.95R
LAMAR          MOCLDY    53  49  86 N6        29.89R
SPRINGFIELD      N/A     48  44  86 NW16      29.88R
$$




USA.gov is the U.S. government's official web portal to all federal, state and local government web resources and services.